Wind_Speed
14 12 12 11 11 12 14 16 18 20 22 24 27 28 29 30 31 33 35 39 40 41 41 42 43 45 48 49 51 54 58 60 59 58 58 59 60 61 62 63 63 63 63 62
9 10 10 11 13 14 16 18 20 22 24 26 27 29 30 33 35 38 41 43 44 46 47 48 49 52 55 57 58 59 60 62 63 65 67 64 63 64 65 66 67 68 67 66
8 9 10 12 16 19 21 22 23 24 25 29 32 34 36 39 41 45 47 49 51 52 54 56 60 65 67 66 64 64 66 68 69 72 75 75 71 70 71 71 71 72 72 73
8 9 12 15 17 19 20 22 23 26 27 30 34 37 40 43 47 51 54 56 58 62 65 69 71 70 70 69 68 68 71 74 76 78 79 80 77 75 75 76 75 75 76 77
9 11 15 16 17 17 18 21 23 26 30 34 37 43 47 48 51 54 56 59 63 68 71 75 76 76 75 75 76 77 77 78 80 82 83 81 80 79 77 77 77 77 77 78
12 12 14 16 17 19 21 24 27 31 36 41 45 51 54 56 59 61 64 66 69 74 76 77 78 81 82 83 83 81 81 81 82 83 82 79 75 71 69 69 70 71 72 74
12 13 14 17 19 21 24 27 31 36 42 47 51 56 60 64 67 69 72 72 72 74 75 77 80 83 84 84 83 83 82 79 77 73 68 63 57 52 51 53 55 58 62 65
15 16 16 19 21 23 26 30 36 41 47 51 56 61 64 67 71 74 74 74 73 74 75 78 82 83 82 81 80 78 73 68 63 55 47 42 41 42 46 50 53 57 61 65
17 18 19 22 24 26 30 36 41 48 54 59 63 65 68 72 75 76 74 71 71 73 75 77 78 79 78 77 75 71 62 52 42 36 35 36 38 42 46 46 46 50 53 57
18 21 23 24 26 29 34 42 48 54 59 63 66 69 72 75 73 72 70 70 72 74 73 70 67 64 60 57 52 45 42 35 33 33 33 33 37 40 38 39 42 46 48 47
21 22 27 29 29 33 39 47 53 57 60 65 69 71 75 74 73 72 70 68 65 61 60 58 54 52 50 45 39 35 33 33 33 32 31 32 34 35 35 38 42 43 40 39
22 25 29 32 34 37 44 50 56 59 62 66 70 72 76 74 70 68 64 61 59 60 57 52 52 50 44 37 32 30 30 30 30 28 29 30 32 33 34 36 40 38 36 32
25 29 32 35 38 42 48 53 58 63 66 70 72 71 72 68 66 62 58 56 56 56 51 49 46 43 39 34 30 28 28 27 27 27 28 29 31 33 32 32 33 32 31 27
26 29 33 37 41 45 50 56 60 66 71 74 73 72 72 70 64 55 51 52 52 49 48 47 44 41 39 35 31 29 30 29 29 30 31 31 32 33 33 31 30 28 26 24
27 30 33 37 43 48 53 58 62 68 72 74 72 71 70 64 57 53 51 52 48 49 48 46 45 43 40 37 33 31 31 31 32 33 34 34 33 33 33 32 29 25 23 22
29 32 35 39 45 51 56 60 65 70 72 73 73 70 65 59 54 50 50 50 47 48 47 48 47 44 42 39 35 34 34 35 35 36 36 36 33 33 33 32 30 25 22 21
31 35 40 45 50 55 58 62 67 71 74 73 72 68 63 56 52 49 49 48 45 45 47 49 49 47 45 42 40 38 38 39 39 40 40 39 36 34 34 33 31 28 24 21
34 39 45 49 53 58 61 64 69 74 71 70 68 64 57 52 50 49 48 46 45 47 49 51 51 49 47 46 45 44 44 44 43 42 41 40 39 38 36 35 34 31 27 25
37 43 49 53 57 60 63 67 72 75 72 70 65 56 49 46 47 48 47 45 46 48 51 53 53 52 51 51 50 50 50 49 48 46 45 44 42 39 37 36 36 34 31 29
41 47 51 55 58 61 65 68 73 75 70 67 57 49 46 45 45 46 47 47 48 50 53 54 54 54 55 55 55 56 55 54 54 52 50 47 44 41 40 37 37 36 34 32
45 50 53 57 59 62 66 70 73 71 70 65 52 46 46 45 46 48 49 51 52 54 56 56 57 58 58 59 59 59 59 58 57 56 53 51 48 45 44 41 39 38 37 36
48 53 56 59 61 64 67 70 72 72 70 60 48 43 44 45 46 49 53 55 56 57 58 58 58 59 60 61 62 61 60 59 58 57 55 53 51 48 47 45 43 42 41 39
50 54 57 59 61 64 67 70 75 73 67 56 43 41 43 45 48 52 56 59 59 58 58 59 61 62 61 59 57 55 54 53 51 49 48 46 45 46 47 47 46 46 45 44
52 56 59 60 62 65 68 72 75 71 66 54 43 41 43 47 51 55 59 60 59 58 60 61 58 53 51 51 52 52 53 52 50 47 43 40 38 37 38 40 44 47 49 48
54 58 60 60 62 65 68 72 74 72 66 54 44 42 44 48 54 57 60 60 60 61 58 51 47 49 51 52 52 52 53 53 52 49 44 39 36 34 33 33 33 37 43 48
56 60 60 60 63 65 68 71 73 71 65 54 44 42 45 50 56 59 61 60 60 54 45 43 46 48 50 51 52 53 53 53 51 49 45 40 36 35 35 34 33 31 31 35
Wind_Direction
50 46 37 30 25 14 4 355 349 346 340 337 337 337 333 328 324 319 316 315 312 309 302 298 295 291 291 288 284 281 280 281 279 275 275 275 273 270 269 269 269 268 266 265
40 31 15 7 3 358 350 347 345 340 338 334 333 332 328 326 321 319 317 315 313 310 305 300 297 294 292 288 285 282 280 279 276 274 274 273 271 268 265 265 268 269 269 267
18 6 356 352 350 347 343 344 342 341 339 334 330 331 327 324 320 319 317 314 311 309 306 302 299 297 295 292 289 285 282 279 276 275 275 274 273 270 268 267 266 265 265 266
8 357 347 344 344 341 339 340 341 342 339 334 330 326 321 319 317 317 316 313 308 304 303 302 301 299 296 294 292 288 286 284 283 282 282 282 281 277 273 271 270 269 267 266
359 351 342 341 339 339 340 340 339 336 331 329 326 321 316 314 314 312 309 305 302 300 299 298 299 299 297 294 290 288 286 284 284 283 283 283 283 281 279 277 275 273 270 267
340 339 339 340 343 343 340 336 332 328 329 329 325 319 316 314 311 310 308 305 302 301 300 300 299 297 294 290 287 286 286 286 286 287 289 288 286 283 281 278 276 273 269 265
330 334 338 340 339 336 332 330 327 328 328 327 324 319 317 314 311 309 307 306 304 303 302 300 297 291 289 289 290 290 291 293 293 293 292 290 288 284 281 278 275 273 269 264
338 336 338 337 335 330 328 327 328 327 327 325 323 320 317 313 311 309 308 307 306 304 301 296 292 293 295 295 293 293 294 295 295 294 292 290 286 285 287 286 282 277 271 266
338 335 334 335 334 333 330 329 328 327 325 324 323 320 316 314 313 312 310 307 303 299 297 298 301 302 301 298 296 294 294 295 295 294 294 293 292 294 298 299 298 297 292 281
338 332 330 332 331 329 330 329 330 329 326 323 322 319 317 316 314 310 307 304 303 304 307 310 310 310 309 306 301 296 296 297 299 300 298 297 298 301 304 306 305 307 302 294
333 334 331 329 325 325 328 331 333 329 326 323 321 319 319 317 314 311 311 312 312 314 318 320 321 321 319 315 307 301 302 303 301 299 299 301 306 304 301 307 310 310 309 301
328 330 329 327 325 327 329 332 331 328 326 323 321 321 323 320 317 315 317 318 320 324 327 327 328 328 326 322 315 308 306 306 304 302 303 305 309 308 302 311 315 318 317 307
327 329 329 328 328 329 330 331 330 328 325 324 325 325 324 321 318 319 320 320 323 328 332 333 333 334 333 329 324 318 313 312 311 312 313 311 309 309 304 307 316 318 322 311
329 329 329 329 328 329 331 331 329 328 326 326 326 327 327 325 323 322 322 326 329 332 333 334 336 338 337 335 331 326 322 323 321 320 317 314 310 307 306 303 311 317 318 317
330 328 330 329 329 330 331 330 330 328 327 327 329 330 330 328 327 329 332 333 333 334 335 337 338 338 338 336 332 328 325 323 322 321 318 314 310 305 303 303 304 313 313 310
329 327 330 332 330 332 332 332 331 329 328 330 333 333 332 332 333 334 334 334 333 334 337 338 338 337 336 334 332 329 326 323 321 319 317 314 309 304 300 298 300 301 303 304
328 329 332 333 331 333 334 334 331 329 331 334 336 336 338 337 334 333 334 333 332 336 338 338 338 337 335 332 329 327 325 322 318 315 314 312 308 303 299 295 294 293 293 294
330 332 334 333 333 333 336 333 333 331 333 335 337 340 341 336 335 336 336 333 331 333 333 333 333 333 331 329 327 324 322 320 317 315 312 309 305 302 300 295 291 288 284 281
332 335 334 334 334 335 336 336 334 333 336 337 339 341 341 341 340 340 338 333 331 330 330 330 330 329 327 325 322 320 318 315 314 311 308 306 302 298 296 294 290 285 280 274
335 337 335 334 333 335 337 336 334 333 335 338 339 340 342 346 345 341 339 335 331 330 329 328 327 325 323 321 319 316 314 312 310 308 305 302 298 293 291 289 286 283 279 272
337 337 336 334 334 336 337 336 334 334 336 339 339 341 343 343 342 342 340 336 333 330 329 328 326 324 322 320 318 316 313 311 308 306 303 299 295 290 286 284 281 278 274 270
336 337 337 335 335 336 337 335 335 335 337 337 338 341 342 342 342 343 340 337 333 331 330 329 327 326 323 321 320 318 317 315 312 308 303 297 292 286 282 279 275 272 270 267
336 338 337 336 335 334 336 336 334 336 338 337 336 339 341 341 342 344 342 339 336 335 333 331 329 328 328 329 330 331 330 328 324 319 314 308 300 291 283 277 272 269 266 263
338 340 338 335 335 334 336 335 334 338 339 335 330 334 338 340 342 343 342 340 338 337 334 332 334 339 343 344 345 344 343 342 338 334 327 320 315 309 299 288 277 270 265 262
339 338 337 336 335 335 335 333 335 338 339 332 327 331 337 340 342 343 341 341 339 337 337 342 349 353 353 352 350 350 349 349 347 346 343 337 331 327 321 311 299 285 273 265
337 337 336 335 335 334 334 333 336 339 338 333 328 331 336 340 342 342 342 341 340 342 350 356 358 357 357 357 357 356 354 352 352 352 351 347 342 339 336 330 322 310 295 281
Height
5844 5844 5842 5841 5839 5837 5834 5832 5829 5827 5823 5819 5815 5811 5805 5800 5794 5788 5783 5778 5773 5767 5761 5755 5749 5743 5737 5731 5726 5720 5715 5711 5706 5702 5699 5696 5693 5690 5687 5685 5683 5682 5680 5679
5846 5843 5841 5838 5836 5834 5832 5829 5826 5823 5819 5814 5808 5804 5799 5794 5788 5783 5777 5771 5764 5759 5753 5745 5737 5730 5722 5715 5709 5702 5696 5691 5686 5683 5679 5676 5674 5671 5669 5668 5666 5663 5661 5661
5843 5842 5839 5836 5834 5832 5829 5827 5824 5820 5816 5811 5806 5801 5795 5788 5782 5774 5766 5759 5751 5744 5735 5727 5718 5710 5701 5694 5687 5682 5676 5671 5666 5661 5657 5654 5652 5648 5646 5645 5645 5643 5641 5641
5842 5840 5839 5837 5835 5832 5828 5825 5820 5815 5811 5806 5801 5795 5788 5780 5773 5765 5756 5745 5735 5725 5714 5703 5693 5685 5677 5670 5664 5657 5652 5646 5640 5636 5632 5628 5624 5622 5621 5621 5622 5621 5618 5617
5841 5839 5837 5835 5832 5828 5824 5820 5816 5811 5807 5802 5796 5788 5780 5772 5764 5755 5744 5733 5722 5709 5698 5686 5675 5665 5655 5647 5640 5632 5626 5620 5613 5608 5604 5601 5598 5593 5592 5592 5593 5593 5592 5591
5838 5836 5834 5830 5827 5824 5821 5818 5814 5809 5803 5797 5789 5780 5771 5763 5752 5740 5728 5716 5704 5691 5679 5667 5656 5645 5634 5623 5614 5608 5603 5597 5590 5584 5579 5575 5572 5568 5566 5564 5564 5564 5564 5564
5837 5834 5831 5828 5825 5822 5819 5816 5811 5804 5797 5790 5781 5770 5760 5747 5734 5722 5710 5697 5684 5673 5661 5649 5636 5622 5610 5601 5593 5585 5580 5575 5569 5563 5558 5554 5551 5547 5545 5541 5539 5538 5537 5536
5835 5832 5829 5824 5820 5817 5813 5809 5804 5797 5789 5782 5772 5758 5746 5732 5719 5705 5693 5679 5668 5655 5640 5625 5610 5599 5591 5582 5575 5569 5565 5559 5552 5546 5541 5538 5535 5532 5528 5523 5519 5516 5513 5512
5832 5829 5825 5820 5816 5812 5807 5801 5795 5788 5778 5767 5758 5746 5731 5717 5703 5691 5678 5665 5651 5635 5620 5606 5594 5582 5570 5561 5554 5550 5548 5543 5538 5533 5529 5526 5523 5519 5513 5506 5500 5495 5489 5485
5829 5827 5822 5817 5812 5807 5802 5794 5787 5776 5763 5752 5742 5729 5715 5701 5689 5676 5664 5650 5635 5620 5606 5593 5579 5568 5556 5544 5536 5531 5530 5527 5524 5521 5517 5515 5511 5506 5500 5494 5488 5481 5473 5466
5825 5823 5819 5813 5807 5801 5794 5786 5777 5766 5753 5738 5725 5715 5701 5686 5671 5657 5644 5631 5618 5606 5594 5580 5567 5555 5544 5534 5527 5523 5521 5518 5515 5511 5508 5505 5500 5494 5489 5483 5476 5468 5459 5450
5821 5819 5814 5809 5802 5795 5787 5779 5769 5757 5745 5731 5715 5703 5683 5667 5652 5639 5628 5617 5605 5594 5582 5569 5557 5546 5536 5529 5523 5518 5514 5511 5507 5503 5499 5495 5490 5484 5479 5473 5465 5457 5448 5440
5816 5814 5810 5804 5798 5790 5780 5770 5759 5747 5734 5720 5705 5692 5672 5656 5643 5631 5620 5609 5598 5586 5573 5562 5552 5542 5532 5525 5519 5513 5509 5505 5501 5496 5491 5486 5481 5475 5470 5465 5458 5450 5441 5434
5812 5807 5805 5800 5790 5781 5772 5762 5750 5738 5723 5709 5693 5678 5662 5647 5635 5625 5615 5602 5590 5579 5568 5558 5548 5538 5529 5521 5514 5508 5503 5499 5494 5488 5483 5478 5472 5467 5462 5457 5451 5443 5436 5430
5807 5803 5799 5792 5783 5774 5765 5753 5740 5727 5713 5698 5681 5663 5648 5634 5622 5612 5602 5591 5581 5572 5562 5552 5542 5533 5525 5517 5510 5504 5498 5493 5487 5481 5475 5469 5464 5458 5453 5448 5443 5437 5432 5426
5802 5797 5792 5786 5776 5767 5755 5743 5730 5716 5703 5687 5669 5656 5640 5625 5613 5604 5595 5585 5575 5565 5555 5545 5536 5527 5519 5512 5505 5499 5492 5485 5479 5473 5467 5461 5455 5450 5444 5440 5435 5431 5426 5422
5797 5791 5785 5779 5768 5758 5746 5733 5720 5706 5690 5674 5659 5645 5628 5615 5605 5598 5588 5578 5569 5559 5549 5539 5529 5521 5513 5505 5498 5491 5484 5477 5470 5464 5457 5451 5445 5440 5435 5431 5426 5423 5419 5415
5792 5785 5778 5770 5761 5749 5740 5724 5709 5695 5680 5663 5646 5632 5619 5607 5598 5588 5579 5571 5562 5553 5543 5533 5523 5514 5506 5497 5489 5481 5474 5467 5460 5453 5447 5441 5435 5429 5424 5420 5416 5413 5410 5407
5786 5779 5769 5760 5750 5739 5728 5713 5699 5684 5671 5654 5639 5625 5616 5606 5593 5583 5574 5565 5555 5546 5536 5525 5515 5506 5497 5488 5480 5471 5463 5455 5447 5440 5434 5428 5422 5417 5412 5408 5404 5401 5400 5398
5779 5771 5762 5751 5739 5729 5719 5704 5689 5675 5660 5645 5630 5619 5609 5600 5592 5581 5570 5560 5550 5540 5530 5519 5508 5497 5487 5478 5468 5459 5449 5441 5432 5425 5419 5412 5407 5403 5399 5395 5391 5389 5387 5386
5772 5763 5753 5742 5731 5720 5708 5695 5681 5669 5655 5638 5624 5613 5602 5591 5583 5573 5563 5553 5543 5533 5522 5511 5499 5487 5476 5466 5456 5445 5435 5425 5416 5408 5401 5395 5390 5386 5382 5380 5377 5374 5372 5372
5764 5754 5744 5733 5722 5714 5700 5687 5674 5660 5643 5630 5618 5607 5597 5587 5577 5567 5557 5547 5536 5525 5514 5502 5490 5478 5466 5454 5443 5431 5420 5408 5398 5389 5381 5375 5370 5367 5363 5361 5359 5357 5355 5356
5757 5748 5737 5726 5717 5703 5690 5678 5664 5648 5634 5621 5610 5601 5592 5583 5573 5563 5552 5541 5529 5517 5505 5493 5480 5467 5454 5442 5430 5418 5406 5395 5384 5374 5364 5356 5350 5346 5343 5341 5340 5337 5337 5337
5750 5739 5729 5718 5707 5694 5681 5668 5654 5640 5626 5614 5605 5596 5586 5577 5568 5557 5546 5534 5522 5509 5497 5484 5471 5459 5447 5435 5423 5411 5398 5386 5374 5363 5353 5344 5336 5330 5325 5321 5320 5319 5317 5318
5742 5731 5721 5711 5699 5687 5674 5660 5648 5633 5620 5608 5599 5590 5582 5572 5562 5551 5540 5527 5514 5502 5488 5477 5466 5455 5443 5431 5419 5407 5394 5381 5368 5356 5345 5336 5328 5321 5315 5309 5304 5301 5298 5298
5734 5724 5714 5704 5692 5681 5668 5654 5641 5627 5614 5602 5593 5586 5577 5567 5557 5544 5533 5520 5508 5495 5484 5474 5464 5453 5442 5430 5418 5405 5391 5378 5366 5353 5342 5332 5323 5315 5308 5301 5294 5288 5284 5282